RH
42 41 40 39 37 36 35 37 38 37 37 37 36 36 37 38 38 37 36 36 34 31 28 26 22 20 19 18 21 20 21 24 28 30 30 31 30 30 31 30 31 32 34 33 33 32 32
45 44 43 41 40 40 39 39 39 39 39 39 38 38 38 39 39 39 39 37 36 35 31 28 27 24 23 21 21 22 23 25 27 28 29 31 33 33 34 34 33 34 33 34 34 35 36
47 47 45 44 42 42 43 42 42 42 41 40 40 39 40 41 40 40 41 41 40 38 36 31 29 26 24 22 21 21 24 25 27 29 29 30 31 31 34 36 36 36 38 37 38 38 39
47 49 48 46 46 44 43 42 42 42 42 42 42 42 42 42 42 42 42 42 42 40 33 31 32 30 26 23 24 21 21 24 26 29 29 31 33 33 33 34 36 37 37 42 38 38 39
48 48 49 49 47 47 47 47 44 44 45 45 44 43 42 43 43 43 43 41 41 41 36 37 34 30 27 26 24 22 22 24 24 30 31 31 33 34 34 36 38 38 38 37 33 33 35
52 49 52 53 53 49 49 49 49 49 51 51 50 48 48 48 44 44 45 42 40 37 38 40 34 34 33 33 34 31 28 28 27 29 32 33 35 39 40 37 35 38 39 38 32 28 31
55 52 51 56 56 52 51 54 55 56 55 55 55 53 53 53 51 48 47 44 44 41 35 38 39 37 35 35 34 37 34 31 29 29 30 31 35 39 38 37 31 33 38 34 30 27 29
57 55 54 55 59 58 56 56 59 60 60 58 57 56 56 55 52 49 47 45 44 43 36 34 35 34 33 32 32 35 35 33 30 29 27 28 30 27 28 29 29 29 28 27 26 27 28
66 59 59 58 58 61 61 63 62 63 64 61 59 59 58 57 56 52 49 47 44 40 39 37 33 28 27 26 26 33 33 32 32 29 28 27 24 24 25 27 30 30 30 28 29 27 26
74 67 71 71 69 68 70 70 68 66 66 66 64 62 62 62 56 54 52 49 44 44 43 42 38 34 31 29 27 30 30 30 32 31 30 28 25 24 26 27 28 27 28 28 27 28 27
85 79 76 76 82 83 80 77 74 71 73 73 69 67 65 61 58 53 51 48 42 43 55 40 38 36 37 37 37 34 34 32 30 28 27 25 25 25 26 27 29 28 28 30 33 34 34
86 81 83 81 87 93 91 87 83 84 79 74 73 69 67 58 56 50 47 45 45 48 56 42 38 38 42 44 44 42 39 39 37 37 37 36 34 33 34 38 39 40 42 44 49 51 57
96 96 95 97 93 96 93 92 91 88 81 77 71 68 62 55 53 51 52 52 56 57 46 43 42 45 50 49 48 46 45 43 44 45 43 46 48 50 51 53 53 51 48 53 55 63 51
97 96 98 98 99 97 99 97 94 91 84 81 71 59 55 57 58 57 57 61 66 54 48 46 48 50 49 48 46 48 50 51 49 48 48 50 48 52 54 53 52 54 52 63 68 61 62
98 98 98 98 99 99 98 99 95 94 87 78 66 55 51 58 61 58 59 67 65 57 51 53 53 46 43 42 44 45 46 45 44 45 49 55 48 51 54 56 55 53 56 61 64 68 65
99 98 98 98 99 99 98 96 96 93 86 74 66 50 56 64 60 56 57 61 53 52 52 53 55 49 50 54 54 52 48 46 47 50 52 57 61 59 59 58 59 59 56 60 64 73 85
96 94 97 97 98 98 97 99 98 98 91 75 68 58 62 63 61 56 60 61 55 54 55 57 60 61 60 60 56 49 46 45 45 48 50 53 54 55 57 58 59 60 60 63 68 81 86
97 95 97 98 98 99 98 97 98 91 92 81 68 74 70 65 64 67 61 63 51 58 62 62 62 60 57 56 53 49 46 46 49 47 48 50 56 56 52 55 56 54 60 60 59 56 69
96 95 92 93 93 91 93 92 94 94 87 76 54 70 67 71 70 70 61 54 58 64 65 60 55 50 49 48 59 56 55 53 51 51 53 57 58 64 62 55 54 52 54 62 67 65 59
82 72 75 78 80 74 75 79 80 83 73 67 65 73 69 64 61 61 59 53 63 65 66 63 57 52 52 50 55 66 66 57 54 52 57 56 60 64 67 64 59 59 60 67 70 77 68
57 52 35 23 24 28 38 44 49 57 57 56 62 66 61 55 61 57 59 66 63 66 63 60 55 52 51 57 54 49 49 50 54 55 61 63 56 58 56 64 65 62 63 71 74 75 85
31 33 36 35 30 26 26 24 28 40 41 49 55 49 51 51 60 53 51 61 72 73 67 55 54 54 51 48 49 55 60 61 56 56 64 66 68 72 66 71 76 66 67 73 72 69 72
17 15 20 18 21 23 19 24 25 34 35 46 45 48 51 60 59 49 48 54 59 57 52 53 49 50 47 44 48 50 52 56 57 57 63 68 77 83 71 70 70 61 54 58 63 64 68
22 18 20 16 17 15 16 17 31 36 39 38 38 47 56 53 46 47 55 55 52 47 50 48 50 50 53 53 53 54 57 57 58 61 64 74 84 90 82 77 78 54 57 58 62 63 69
19 17 16 13 17 14 14 19 23 32 33 46 43 47 43 42 41 52 51 47 49 50 52 54 56 57 59 62 61 59 58 54 57 62 67 75 87 94 94 92 67 56 59 63 64 61 71
24 19 13 16 19 17 14 15 15 30 32 36 36 36 40 45 44 41 46 49 45 50 50 52 55 60 62 63 66 66 64 58 62 60 66 75 86 93 97 97 88 63 61 66 67 68 70
18 12 9 8 14 19 25 27 28 31 35 37 43 44 42 40 39 39 42 43 44 47 51 51 54 60 62 64 67 69 69 67 70 68 74 81 86 88 93 96 76 70 71 72 82 78 74
12 8 8 8 10 19 25 29 32 38 38 41 43 41 40 38 37 37 39 40 47 47 51 53 57 58 62 65 67 69 70 70 72 69 73 78 87 91 91 95 87 73 74 78 80 81 79
12 9 8 8 8 13 21 27 30 29 32 37 35 37 35 39 41 42 44 45 46 50 49 53 58 56 61 65 68 71 75 74 74 74 73 81 78 86 87 80 81 79 81 82 85 86 88